DELTA 1 R/B, 3036

Orbit data source: Space-Track

DELTA 1 R/B, 3036 is space debris in SSO originally from a launch on Fri, 10 Nov 1967 UTC launched from the Air Force Western Test Range (AFWTR). Debris objects in space refer to the collection of defunct objects orbiting the Earth. Examples of debris include non-operational satellites, rocket bodies, and fragments generated from explosions, collisions, or faulty payload assembly.

Loading next visibility...
Identifier
3036, 1967-114B
Orbit
SSO
Last TLE update
3 hours ago
Origin
Manufacturer
UTC
Mission
Spacecraft
Bus & Motor
FW4, Unknown motor
Mass
~40 kg wet, ~40 kg dry
Launch date (UTC)
1967-11-10 (58 years ago)
Launch vehicle
Unknown
Launch site
Air Force Western Test Range (AFWTR)
Object type
Payload
Rocket body
Debris
Shape & HBR
Cyl, 1.5 m
Radar Cross Section
0.687 m², Medium (>0.1 m² and < 1m²)

Expand to show TLE details & history

TLE from 3 hours ago
0 DELTA 1 R/B
1  3036U 67114B   25182.22675391 -.00000031  00000-0  95526-4 0  9990
2  3036 102.0150 273.8596 0048383  88.7924 303.8879 12.54132448638758
Epoch: 2025-07-01T05:26Z
TLE epoch observation values (Epoch: 2025-07-01T05:26:31.537Z)
Latitude
31.48603°
Longitude
-94.74978°
Altitude
1,429.99 km
Speed
7.159 km/s
True Right ascension
17h 45m 37s
True Declination
31° 20' 47"
Sunlit
Object was in daylight at epoch
Visualization orbit readout
Latitude
-66.9035°
Longitude
-57.38168°
Altitude
1,507.61 km
Speed
7.095 km/s
Apparent Right ascension
08h 33m 11s
Apparent Declination
-80° 56' 32"
Sunlit
Object is in full shadow
Visualization observer readout
Local Sidereal Time
20:21:44
Azimuth
180.686° SSW
Elevation
-48.961°
Doppler factor
1
Orbital elements
Apogee altitude
1,482.664 km
Perigee altitude
1,406.965 km
Semi-major axis
7,822.952 km
Eccentricity
0.00484
Inclination
102.015°
RAAN
273.8596°
Arg. of periapsis
88.7924°
True anomaly
Unknown
Mean anomaly
303.8879°
Eccentric anomaly
Unknown
Mean motion
3.1368 °/min
Orbital period
114.77 mins
BSTAR
0.000095526
Loading maneuver chart data...
Loading SW <> Apogee altitude chart data...
Loading historical data...
Loading historical data...
Loading historical data...
Loading historical data...
Loading historical data...
Loading historical data...
Loading historical data...
Other satellites on launch #114 in the year 1967 (1967-11-10 UTC)

DELTA 1 R/B Visibility forecast

Observer location: undefined°, undefined°

Span
Click to sort rows by Start time (UTC) header in descending order
Start Az.
Max El. time (UTC)
Max El. Az.
Max El.
End time (UTC)
End Az.
10 mins2025-07-01 17:25:34.722Z51.543° ENE2025-07-01 17:30:34.722Z90.642° ESE17.839°2025-07-01 17:35:34.722Z130.838° SE
14 mins2025-07-01 19:17:34.722Z16.111° NNE2025-07-01 19:24:34.722Z246.933° WSW44.751°2025-07-01 19:31:34.722Z203.226° SW
8 mins2025-07-01 21:12:34.722Z337.241° NNW2025-07-01 21:15:34.722Z311.484° NW18.32°2025-07-01 21:20:34.722Z271.137° WNW
12 mins2025-07-02 04:24:34.722Z106.107° ESE2025-07-02 04:29:34.722Z62.303° ENE25.73°2025-07-02 04:36:34.722Z1.829° NNE
14 mins2025-07-02 06:15:34.722Z176.022° S2025-07-02 06:22:34.722Z271.227° WNW42.065°2025-07-02 06:29:34.722Z335.704° NNW
|